Weather History for KABY - April, 2012

Change the Weather History Date:

Wednesday, April 11, 2012

  Actual Average Record
Temperature  
Mean Temperature 64 °F 65 °F  
Max Temperature 78 °F 78 °F 90 °F (1978)
Min Temperature 51 °F 52 °F 34 °F (1960)
Degree Days  
Heating Degree Days 1 3  
Month to date heating degree days 37  
Since 1 July heating degree days 1806  
Cooling Degree Days 0 3  
Month to date cooling degree days 25  
Year to date cooling degree days 63  
Growing Degree Days 14 (Base 50)    
Moisture  
Dew Point 42 °F    
Average Humidity 49    
Maximum Humidity 86    
Minimum Humidity 23    
Precipitation  
Precipitation 0.00 in 0.13 in 0.20 in (2013)
Month to date precipitation 1.63  
Year to date precipitation 15.66  
Sea Level Pressure  
Sea Level Pressure 30.06 in    
Wind  
Wind Speed 3 mph (NW)    
Max Wind Speed 15 mph    
Max Gust Speed 22 mph    
Visibility 10 miles    
Events      
T = Trace of Precipitation, MM = Missing Value Source: NWS Daily Summary

Daily Weather History Graph

Daily Weather History Graph

Search for Another Location

Airport or City:

Trip Planner

Search our weather history database for the weather conditions in past years. The results will help you decide how hot, cold, wet, or windy it might be!

Date:

Astronomy

Apr. 11, 2012 Rise Set
Actual Time 7:12 AM EDT 8:03 PM EDT
Civil Twilight 6:47 AM EDT 8:28 PM EDT
Nautical Twilight 6:18 AM EDT 8:57 PM EDT
Astronomical Twilight 5:48 AM EDT 9:27 PM EDT
Moon 12:43 AM EDT (4/11) 11:13 AM EDT (4/11)
Length of Visible Light 13h 40m
Length of Day
12h 50m
Waning Gibbous, 69% of the Moon is Illuminated
Apr 11
Waning Gibbous
Apr 13
Last Quarter
Apr 21
New
Apr 29
First Quarter
May 5
Full

Hourly Weather History & Observations

Time (EDT) Temp. Dew Point Humidity Pressure Visibility Wind Dir Wind Speed Gust Speed Precip Events Conditions
12:53 AM 57.9 °F 46.9 °F 67% 30.03 in 10.0 mi Calm Calm - N/A   Clear
1:53 AM 57.0 °F 48.0 °F 72% 30.04 in 10.0 mi Calm Calm - N/A   Clear
2:53 AM 55.9 °F 48.0 °F 75% 30.02 in 10.0 mi Calm Calm - N/A   Clear
3:53 AM 55.0 °F 48.0 °F 77% 30.02 in 10.0 mi Calm Calm - N/A   Clear
4:53 AM 53.1 °F 48.0 °F 83% 30.03 in 10.0 mi Calm Calm - N/A   Clear
5:53 AM 52.0 °F 46.9 °F 83% 30.03 in 10.0 mi Calm Calm - N/A   Clear
6:53 AM 51.1 °F 46.9 °F 86% 30.05 in 9.0 mi Calm Calm - N/A   Clear
7:53 AM 57.0 °F 45.0 °F 64% 30.08 in 10.0 mi North 5.8 mph - N/A   Clear
8:53 AM 63.0 °F 39.9 °F 43% 30.10 in 10.0 mi North 6.9 mph - N/A   Clear
9:53 AM 66.0 °F 37.9 °F 36% 30.11 in 10.0 mi North 8.1 mph - N/A   Clear
10:53 AM 69.1 °F 37.9 °F 32% 30.12 in 10.0 mi North 5.8 mph - N/A   Clear
11:53 AM 70.0 °F 37.0 °F 30% 30.14 in 10.0 mi NNW 5.8 mph - N/A   Clear
12:53 PM 73.0 °F 37.0 °F 27% 30.12 in 10.0 mi North 9.2 mph - N/A   Mostly Cloudy
1:53 PM 75.0 °F 37.9 °F 26% 30.09 in 10.0 mi WNW 8.1 mph - N/A   Scattered Clouds
2:53 PM 77.0 °F 39.0 °F 25% 30.06 in 10.0 mi NW 8.1 mph - N/A   Clear
3:53 PM 77.0 °F 37.9 °F 24% 30.05 in 10.0 mi WNW 15.0 mph 21.9 mph N/A   Clear
4:53 PM 77.0 °F 36.0 °F 23% 30.04 in 10.0 mi NW 9.2 mph 21.9 mph N/A   Clear
5:53 PM 73.4 °F 39.2 °F 29% 30.03 in 10.0 mi WNW 6.9 mph - N/A   Clear
6:53 PM 71.1 °F 41.0 °F 34% 30.03 in 10.0 mi WNW 9.2 mph - N/A   Clear
7:53 PM 69.1 °F 41.0 °F 36% 30.04 in 10.0 mi WNW 5.8 mph - N/A   Clear
8:53 PM 66.9 °F 39.0 °F 36% 30.05 in 10.0 mi WNW 4.6 mph - N/A   Clear
9:53 PM 63.0 °F 41.0 °F 45% 30.07 in 10.0 mi Calm Calm - N/A   Clear
10:53 PM 59.0 °F 43.0 °F 55% 30.09 in 10.0 mi WNW 4.6 mph - N/A   Clear
11:53 PM 57.0 °F 43.0 °F 59% 30.11 in 10.0 mi NW 3.5 mph - N/A   Clear